Delta Billie — WDE8059 — position and weather

sailwx.info

Track history (hours):
 
Tides and Currents Weather Stations Pressure Air Temp Water Temp Dewpoint Dewpoint Depression Visibility Wind Speed Wind Dir Waves Ship Positions

Delta Billie

Owner: Baydelta Maritime, San Francicso, CA. More information available from US FCC via Universal Licensing System and Coast Guard Vessel Documentation Center.

Last reported at 2014-Oct-31 11:25 UTC. Time now 2014-Oct-31 13:41 UTC.
Position N 38°04' W 122°16'.

Length 30 m; draft 5.5 m.

Type: Towing. MMSI: 367401030.

Date/timePositionNaut miles runAvg speedWind from/ knotsBaromVisibWave heightAir tempDewpointWater temp
2014-Oct-31 11:25N 38°04' W 122°16'1 0.1
2014-Oct-31 03:26N 38°03' W 122°15'6 2.9
2014-Oct-31 01:30N 38°02' W 122°08'1 0.0
2014-Oct-30 01:25N 38°02' W 122°08'3 2.2
2014-Oct-30 00:14N 38°03' W 122°12'4 5.5
2014-Oct-29 23:27N 38°03' W 122°17'5 5.2
2014-Oct-29 22:33N 38°01' W 122°22'5 5.5
2014-Oct-29 21:34N 37°57' W 122°27'6 5.5
2014-Oct-29 20:34N 37°52' W 122°24'4 3.9
2014-Oct-29 19:33N 37°49' W 122°28'3 2.7
2014-Oct-29 18:34N 37°49' W 122°31'4 4.0
2014-Oct-29 17:34N 37°49' W 122°26'2 2.0
2014-Oct-29 16:33N 37°48' W 122°24'0 0.0
2014-Oct-29 15:34N 37°48' W 122°24'0 0.0
2014-Oct-29 14:33N 37°48' W 122°24'2 2.3
2014-Oct-29 13:33N 37°46' W 122°22'0 0.3
2014-Oct-29 12:33N 37°46' W 122°22'9 9.5
2014-Oct-29 11:34N 37°55' W 122°25'1 1.0
2014-Oct-29 10:34N 37°54' W 122°25'6 6.1
2014-Oct-29 09:33N 37°48' W 122°24'0 0.0
2014-Oct-29 08:34N 37°48' W 122°24'0 0.0
2014-Oct-29 07:34N 37°48' W 122°24'0 0.0
2014-Oct-29 06:34N 37°48' W 122°24'0 0.0
2014-Oct-29 05:34N 37°48' W 122°24'0 0.0
2014-Oct-29 04:34N 37°48' W 122°24'0 0.0
2014-Oct-29 03:33N 37°48' W 122°24'0 0.0
2014-Oct-29 02:34N 37°48' W 122°24'0 0.0
2014-Oct-29 01:34N 37°48' W 122°24'0 0.0
2014-Oct-29 00:33N 37°48' W 122°24'0 0.0
2014-Oct-28 23:33N 37°48' W 122°24'0 0.0
2014-Oct-28 22:34N 37°48' W 122°24'5 5.5
2014-Oct-28 21:34N 37°54' W 122°25'7 7.5
2014-Oct-28 20:34N 38°01' W 122°23'8 7.9
2014-Oct-28 19:33N 38°04' W 122°14'  
2014-Oct-26 10:06N 38°02' W 122°08'0 0.1
2014-Oct-26 09:22N 38°02' W 122°08'0 0.0
2014-Oct-25 00:13N 38°02' W 122°08'0 0.0
2014-Oct-23 19:27N 38°02' W 122°08'0 0.1
2014-Oct-23 18:18N 38°02' W 122°08'7 3.6
2014-Oct-23 16:18N 38°03' W 122°17'7 9.6
2014-Oct-23 15:33N 37°60' W 122°25'9 9.3
2014-Oct-23 14:33N 37°51' W 122°23'4 3.7
2014-Oct-23 13:33N 37°48' W 122°19'1 0.8
2014-Oct-23 12:33N 37°48' W 122°20'3 2.7
2014-Oct-23 11:33N 37°48' W 122°24'0 0.0
2014-Oct-23 10:34N 37°48' W 122°24'0 0.0
2014-Oct-23 09:34N 37°48' W 122°24'0 0.0
2014-Oct-23 08:34N 37°48' W 122°24'0 0.0
2014-Oct-23 07:34N 37°48' W 122°24'0 0.0
2014-Oct-23 06:34N 37°48' W 122°24'0 0.0
2014-Oct-23 05:33N 37°48' W 122°24'0 0.0
2014-Oct-23 04:34N 37°48' W 122°24'0 0.0
2014-Oct-23 03:34N 37°48' W 122°24'0 0.0
2014-Oct-23 02:33N 37°48' W 122°24'0 0.0
2014-Oct-23 01:34N 37°48' W 122°24'5 4.6
2014-Oct-23 00:34N 37°45' W 122°20'6 5.7
2014-Oct-22 23:34N 37°49' W 122°25'5 5.1
2014-Oct-22 22:34N 37°49' W 122°31'4 3.8
2014-Oct-22 21:34N 37°49' W 122°26'2 2.2
2014-Oct-22 20:34N 37°48' W 122°24'0 0.0
2014-Oct-22 19:33N 37°48' W 122°24'0 0.0
2014-Oct-22 18:33N 37°48' W 122°24'0 0.0
2014-Oct-22 17:33N 37°48' W 122°24'0 0.0
2014-Oct-22 16:33N 37°48' W 122°24'0 0.0
2014-Oct-22 15:33N 37°48' W 122°24'0 0.0
2014-Oct-22 14:34N 37°48' W 122°24'0 0.0
2014-Oct-22 13:33N 37°48' W 122°24'0 0.0
2014-Oct-22 12:34N 37°48' W 122°24'0 0.0
2014-Oct-22 11:34N 37°48' W 122°24'0 0.0
2014-Oct-22 10:33N 37°48' W 122°24'3 2.8
2014-Oct-22 09:34N 37°49' W 122°20'3 2.8
2014-Oct-22 08:34N 37°48' W 122°24'0 0.0
2014-Oct-22 07:34N 37°48' W 122°24'0 0.0
2014-Oct-22 06:34N 37°48' W 122°24'0 0.1
2014-Oct-22 05:33N 37°48' W 122°24'5 4.7
2014-Oct-22 04:34N 37°48' W 122°18'0 0.3
2014-Oct-22 03:33N 37°48' W 122°18'4 4.5
2014-Oct-22 02:34N 37°48' W 122°24'0 0.0
2014-Oct-22 01:33N 37°48' W 122°24'0 0.0
2014-Oct-22 00:33N 37°48' W 122°24'0 0.0
2014-Oct-21 23:33N 37°48' W 122°24'0 0.0
2014-Oct-21 22:34N 37°48' W 122°24'0 0.0
2014-Oct-21 21:33N 37°48' W 122°24'6 6.3
2014-Oct-21 20:33N 37°54' W 122°24'2 1.5
2014-Oct-21 19:34N 37°55' W 122°22'0 0.0
2014-Oct-21 18:33N 37°55' W 122°22'1 0.7
2014-Oct-21 17:34N 37°54' W 122°22'1 1.1
2014-Oct-21 16:34N 37°54' W 122°23'0 0.0
2014-Oct-21 15:34N 37°54' W 122°23'0 0.0
2014-Oct-21 14:34N 37°54' W 122°23'0 0.0
2014-Oct-21 13:33N 37°54' W 122°23'0 0.0
2014-Oct-21 12:34N 37°54' W 122°23'0 0.0
2014-Oct-21 11:34N 37°54' W 122°23'  
Track history (hours):
 
Tides and Currents Weather Stations Pressure Air Temp Water Temp Dewpoint Dewpoint Depression Visibility Wind Speed Wind Dir Waves Ship Positions

Delta Billie

Owner: Baydelta Maritime, San Francicso, CA. More information available from US FCC via Universal Licensing System and Coast Guard Vessel Documentation Center.

Last reported at 2014-Oct-31 11:25 UTC. Time now 2014-Oct-31 13:41 UTC.
Position N 38°04' W 122°16'.

Length 30 m; draft 5.5 m.

Type: Towing. MMSI: 367401030.

Date/timePositionNaut miles runAvg speedWind from/ knotsBaromVisibWave heightAir tempDewpointWater temp
2014-Oct-31 11:25N 38°04' W 122°16'1 0.1
2014-Oct-31 03:26N 38°03' W 122°15'6 2.9
2014-Oct-31 01:30N 38°02' W 122°08'1 0.0
2014-Oct-30 01:25N 38°02' W 122°08'3 2.2
2014-Oct-30 00:14N 38°03' W 122°12'4 5.5
2014-Oct-29 23:27N 38°03' W 122°17'5 5.2
2014-Oct-29 22:33N 38°01' W 122°22'5 5.5
2014-Oct-29 21:34N 37°57' W 122°27'6 5.5
2014-Oct-29 20:34N 37°52' W 122°24'4 3.9
2014-Oct-29 19:33N 37°49' W 122°28'3 2.7
2014-Oct-29 18:34N 37°49' W 122°31'4 4.0
2014-Oct-29 17:34N 37°49' W 122°26'2 2.0
2014-Oct-29 16:33N 37°48' W 122°24'0 0.0
2014-Oct-29 15:34N 37°48' W 122°24'0 0.0
2014-Oct-29 14:33N 37°48' W 122°24'2 2.3
2014-Oct-29 13:33N 37°46' W 122°22'0 0.3
2014-Oct-29 12:33N 37°46' W 122°22'9 9.5
2014-Oct-29 11:34N 37°55' W 122°25'1 1.0
2014-Oct-29 10:34N 37°54' W 122°25'6 6.1
2014-Oct-29 09:33N 37°48' W 122°24'0 0.0
2014-Oct-29 08:34N 37°48' W 122°24'0 0.0
2014-Oct-29 07:34N 37°48' W 122°24'0 0.0
2014-Oct-29 06:34N 37°48' W 122°24'0 0.0
2014-Oct-29 05:34N 37°48' W 122°24'0 0.0
2014-Oct-29 04:34N 37°48' W 122°24'0 0.0
2014-Oct-29 03:33N 37°48' W 122°24'0 0.0
2014-Oct-29 02:34N 37°48' W 122°24'0 0.0
2014-Oct-29 01:34N 37°48' W 122°24'0 0.0
2014-Oct-29 00:33N 37°48' W 122°24'0 0.0
2014-Oct-28 23:33N 37°48' W 122°24'0 0.0
2014-Oct-28 22:34N 37°48' W 122°24'5 5.5
2014-Oct-28 21:34N 37°54' W 122°25'7 7.5
2014-Oct-28 20:34N 38°01' W 122°23'8 7.9
2014-Oct-28 19:33N 38°04' W 122°14'  
2014-Oct-26 10:06N 38°02' W 122°08'0 0.1
2014-Oct-26 09:22N 38°02' W 122°08'0 0.0
2014-Oct-25 00:13N 38°02' W 122°08'0 0.0
2014-Oct-23 19:27N 38°02' W 122°08'0 0.1
2014-Oct-23 18:18N 38°02' W 122°08'7 3.6
2014-Oct-23 16:18N 38°03' W 122°17'7 9.6
2014-Oct-23 15:33N 37°60' W 122°25'9 9.3
2014-Oct-23 14:33N 37°51' W 122°23'4 3.7
2014-Oct-23 13:33N 37°48' W 122°19'1 0.8
2014-Oct-23 12:33N 37°48' W 122°20'3 2.7
2014-Oct-23 11:33N 37°48' W 122°24'0 0.0
2014-Oct-23 10:34N 37°48' W 122°24'0 0.0
2014-Oct-23 09:34N 37°48' W 122°24'0 0.0
2014-Oct-23 08:34N 37°48' W 122°24'0 0.0
2014-Oct-23 07:34N 37°48' W 122°24'0 0.0
2014-Oct-23 06:34N 37°48' W 122°24'0 0.0
2014-Oct-23 05:33N 37°48' W 122°24'0 0.0
2014-Oct-23 04:34N 37°48' W 122°24'0 0.0
2014-Oct-23 03:34N 37°48' W 122°24'0 0.0
2014-Oct-23 02:33N 37°48' W 122°24'0 0.0
2014-Oct-23 01:34N 37°48' W 122°24'5 4.6
2014-Oct-23 00:34N 37°45' W 122°20'6 5.7
2014-Oct-22 23:34N 37°49' W 122°25'5 5.1
2014-Oct-22 22:34N 37°49' W 122°31'4 3.8
2014-Oct-22 21:34N 37°49' W 122°26'2 2.2
2014-Oct-22 20:34N 37°48' W 122°24'0 0.0
2014-Oct-22 19:33N 37°48' W 122°24'0 0.0
2014-Oct-22 18:33N 37°48' W 122°24'0 0.0
2014-Oct-22 17:33N 37°48' W 122°24'0 0.0
2014-Oct-22 16:33N 37°48' W 122°24'0 0.0
2014-Oct-22 15:33N 37°48' W 122°24'0 0.0
2014-Oct-22 14:34N 37°48' W 122°24'0 0.0
2014-Oct-22 13:33N 37°48' W 122°24'0 0.0
2014-Oct-22 12:34N 37°48' W 122°24'0 0.0
2014-Oct-22 11:34N 37°48' W 122°24'0 0.0
2014-Oct-22 10:33N 37°48' W 122°24'3 2.8
2014-Oct-22 09:34N 37°49' W 122°20'3 2.8
2014-Oct-22 08:34N 37°48' W 122°24'0 0.0
2014-Oct-22 07:34N 37°48' W 122°24'0 0.0
2014-Oct-22 06:34N 37°48' W 122°24'0 0.1
2014-Oct-22 05:33N 37°48' W 122°24'5 4.7
2014-Oct-22 04:34N 37°48' W 122°18'0 0.3
2014-Oct-22 03:33N 37°48' W 122°18'4 4.5
2014-Oct-22 02:34N 37°48' W 122°24'0 0.0
2014-Oct-22 01:33N 37°48' W 122°24'0 0.0
2014-Oct-22 00:33N 37°48' W 122°24'0 0.0
2014-Oct-21 23:33N 37°48' W 122°24'0 0.0
2014-Oct-21 22:34N 37°48' W 122°24'0 0.0
2014-Oct-21 21:33N 37°48' W 122°24'6 6.3
2014-Oct-21 20:33N 37°54' W 122°24'2 1.5
2014-Oct-21 19:34N 37°55' W 122°22'0 0.0
2014-Oct-21 18:33N 37°55' W 122°22'1 0.7
2014-Oct-21 17:34N 37°54' W 122°22'1 1.1
2014-Oct-21 16:34N 37°54' W 122°23'0 0.0
2014-Oct-21 15:34N 37°54' W 122°23'0 0.0
2014-Oct-21 14:34N 37°54' W 122°23'0 0.0
2014-Oct-21 13:33N 37°54' W 122°23'0 0.0
2014-Oct-21 12:34N 37°54' W 122°23'0 0.0
2014-Oct-21 11:34N 37°54' W 122°23'  

Dump ship's entire track history